Other Public Products
Issued by NWS Grand Forks, ND

Home | Current Version | Previous Version | Graphics & Text | Print | Product List | Glossary On
Versions: 1 2 3 4 5 6 7 8 9 10 11 12 13 14 15 16 17 18 19 20 21 22 23 24 25 26 27 28 29 30 31 32 33 34 35 36 37 38 39 40 41 42 43 44 45 46 47 48 49 50
000
FPUS83 KFGF 221831
OPUFGF
PRAIRIE TO PINES WEATHER ROUNDUP
NATIONAL WEATHER SERVICE EASTERN NORTH DAKOTA/GRAND FORKS ND
100 PM CDT TUE AUG 22 2017

 **SATELLITE DATA USED TO AUGMENT SKY COVER AT AUTOMATED STATIONS**
 *****  WEATHER ACROSS EASTERN NORTH DAKOTA  *****

CITY           SKY/WX    TMP DP  RH WIND       PRES   REMARKS
GRAND FORKS    FAIR      75  43  31 NW21G35   30.05F
6HR MIN TEMP:  49; 6HR MAX TEMP:  76;

GRAND FORKS AF FAIR      74  40  30 N20G29    30.07F
GRAND CITY NWS NOT AVBL
BUXTON           N/A     76  44  31 NW17        N/A
DEVILS LAKE    FAIR      71  40  32 NW17G25   30.13
6HR MIN TEMP:  51; 6HR MAX TEMP:  71;

FARGO          FAIR      75  42  30 NW20G29   30.08F
6HR MIN TEMP:  50; 6HR MAX TEMP:  75;

WAHPETON ARPT  FAIR      72  41  33 NW18G24   30.11S
$$

 *****  WEATHER ACROSS CENTRAL AND WESTERN NORTH DAKOTA  *****

CITY           SKY/WX    TMP DP  RH WIND       PRES   REMARKS
JAMESTOWN      FAIR      71  46  40 NW13G24   30.14F
6HR MIN TEMP:  50; 6HR MAX TEMP:  71;

BISMARCK       FAIR      75  42  30 NW13      30.20S
6HR MIN TEMP:  46; 6HR MAX TEMP:  76;

MINOT          FAIR      75  38  26 NW13G23   30.16
6HR MIN TEMP:  48; 6HR MAX TEMP:  76;

MINOT AFB      FAIR      74  36  25 NW18      30.14F
6HR MIN TEMP:  45; 6HR MAX TEMP:  74;

GARRISON         N/A     72  38  29 W12G26    30.18F
6HR MIN TEMP:  41; 6HR MAX TEMP:  73;

WILLISTON      FAIR      75  37  25 SW9       30.18F
6HR MIN TEMP:  43; 6HR MAX TEMP:  76;

DICKINSON      FAIR      73  38  27 CALM      30.19F
6HR MIN TEMP:  44; 6HR MAX TEMP:  74;

HETTINGER      FAIR      75  39  27 CALM      30.22F
6HR MIN TEMP:  39; 6HR MAX TEMP:  76;

$$

 *****  OTHER OBSERVATIONS NORTHEAST NORTH DAKOTA  *****

CITY           SKY/WX    TMP DP  RH WIND       PRES   REMARKS
WALHALLA       FAIR      72  68  88 NW18G29   30.06S
LANGDON        FAIR      72  39  30 NW16G32   30.10S
CAVALIER       FAIR      72  45  37 NW18G26   30.05S
GRAFTON        FAIR      73  45  35 NW18G29   30.07S
CANDO          FAIR      73  41  31 NW13G22   30.15S
FORT TOTTEN      N/A     72  43  34 NW8       29.95S
ROLLA          FAIR      70  39  32 NW16G29   30.14F
RUGBY          FAIR      72  41  33 NW18      30.14S
 ***** THE ABOVE OBSERVATIONS ARE NON NWS ARE NOT QUALITY
        CONTROLLED AND MAY MIS-REPORT RAIN FOR SNOW...
$$

 *****  OTHER OBSERVATIONS SOUTHEAST NORTH DAKOTA *****

CITY           SKY/WX    TMP DP  RH WIND       PRES   REMARKS
COOPERSTOWN    FAIR      72  43  35 NW21G32   30.13R
VALLEY CITY      N/A     72  43  35 NW20G26   30.14F
OAKES          NOT AVBL
GWINNER        CLEAR     72  45  37 NW17      30.14S
SHEYENNE NWR     N/A     73  45  36 NW14      29.95S
BUFFALO          N/A     71  36  28 NE16        N/A
WYNDMERE       NOT AVBL
 ***** THE ABOVE OBSERVATIONS ARE NON NWS ARE NOT QUALITY
       CONTROLLED AND MAY MIS-REPORT RAIN FOR SNOW...
$$

  *****  WEATHER ACROSS NORTHERN MINNESOTA  *****

CITY           SKY/WX    TMP DP  RH WIND       PRES   REMARKS
FLAG ISLAND    PTSUNNY   63  54  72 N8        29.95R
WARROAD        FAIR      68  54  60 W18G26    29.98S
ROSEAU         FAIR      70  54  56 NW20G26   29.99R
HALLOCK        FAIR      72  43  35 NW16G31   30.02S
THF RVR FALLS  FAIR      71  43  36 NW21G29   30.04F
6HR MIN TEMP:  48; 6HR MAX TEMP:  73;

HALSTAD          N/A     74  41  30 NW21        N/A
FOSSTON        FAIR      70  41  35 NW18G29   30.05S
BAUDETTE       CLOUDY    67  52  58 NW23      29.95S
6HR MIN TEMP:  50; 6HR MAX TEMP:  68; 6HR PCP: TRACE;

WASKISH        PTSUNNY   68  52  56 NW16G23   29.97F
CROOKSTON      FAIR      75  43  31 N21G32    30.05S
$$
  *****  WEATHER ACROSS CENTRAL AND WEST MINNESOTA  *****

CITY           SKY/WX    TMP DP  RH WIND       PRES   REMARKS
BEMIDJI        PTSUNNY   66  45  45 NW24G30   30.02S
PARK RAPIDS    FAIR      71  48  43 NW23G33   30.04F
6HR MIN TEMP:  50; 6HR MAX TEMP:  71;

WADENA         FAIR      70  48  46 NW18      30.07S
DETROIT LAKES  FAIR      70  43  37 NW16G28   30.08F
MOORHEAD       FAIR      73  41  31 NW22G28   30.09S
FERGUS FALLS   FAIR      70  48  46 NW17G24   30.09F
ELBOW LAKE     FAIR      69  49  50 NW16      30.11F
MORRIS MN      FAIR      73  48  40 NW21G26   30.10F
STAPLES        FAIR      70  45  40 NW16G28   30.06S
WHEATON        FAIR      72  43  35 W15G21    30.14S
$$
  *****  WEATHER ELSEWHERE ACROSS MINNESOTA  *****

CITY           SKY/WX    TMP DP  RH WIND       PRES   REMARKS
DULUTH         PTSUNNY   65  50  58 NW16G26   29.93
6HR MIN TEMP:  52; 6HR MAX TEMP:  67;

INTRNTL FALLS  PTSUNNY   65  52  62 W14G24    29.92
6HR MIN TEMP:  50; 6HR MAX TEMP:  66;

ELY            PTSUNNY   63  48  59 W16G23    29.89S
CLOQUET        CLOUDY    66  48  52 W15G23    29.96S
BRAINERD       FAIR      69  48  47 W18G31    30.03F
6HR MIN TEMP:  54; 6HR MAX TEMP:  70;

HIBBING        CLOUDY    62  48  60 NW15G25   29.95S
6HR MIN TEMP:  51; 6HR MAX TEMP:  65;

ALEXANDRIA     FAIR      69  49  48 NW20G25   30.11S
6HR MIN TEMP:  52; 6HR MAX TEMP:  69;

SAINT CLOUD    FAIR      73  50  44 NW20G26   30.05S
6HR MIN TEMP:  53; 6HR MAX TEMP:  73;

MINNEAPOLIS    FAIR      74  49  41 NW14G24   30.03F
6HR MIN TEMP:  60; 6HR MAX TEMP:  74;

$$

  *****  WEATHER ACROSS SOUTH DAKOTA  *****

CITY           SKY/WX    TMP DP  RH WIND       PRES   REMARKS
SIOUX FALLS    FAIR      73  51  46 N15       30.18F
6HR MIN TEMP:  53; 6HR MAX TEMP:  73;

BROOKINGS      FAIR      69  47  45 NW14      30.18
WATERTOWN      FAIR      70  46  42 NW16G22   30.17S
6HR MIN TEMP:  52; 6HR MAX TEMP:  70;

HURON          FAIR      74  48  39 NW10      30.19
6HR MIN TEMP:  46; 6HR MAX TEMP:  74;

SISSETON         N/A     73  48  41 NW17      30.13
ABERDEEN       FAIR      75  40  28 N15G24    30.17F
6HR MIN TEMP:  42; 6HR MAX TEMP:  75;

MITCHELL       FAIR      75  44  33 NW10G17   30.20F
PIERRE         FAIR      73  42  32 NW3       30.21F
6HR MIN TEMP:  51; 6HR MAX TEMP:  73;

MOBRIDGE       FAIR      74  45  35 VRB5      30.19F
RAPID CITY     FAIR      79  44  28 S15       30.21F
6HR MIN TEMP:  48; 6HR MAX TEMP:  79;

$$

  *****  SOME WEATHER IN NEARBY STATES *****

CITY           SKY/WX    TMP DP  RH WIND       PRES   REMARKS
GLASGOW MT     FAIR      78  35  21 VRB7      30.16F
6HR MIN TEMP:  51; 6HR MAX TEMP:  78;

GREAT FALLS MT FAIR      78  34  20 VRB3      30.15F
6HR MIN TEMP:  48; 6HR MAX TEMP:  78;

CHEYENNE WY    FAIR      68  54  60 S15       30.35F
6HR MIN TEMP:  57; 6HR MAX TEMP:  68;

SCOTTSBLUFF NE PTSUNNY   80  47  31 SE17G23   30.27F
6HR MIN TEMP:  50; 6HR MAX TEMP:  80;

OMAHA NE       FAIR      75  49  39 N14       30.17F
6HR MIN TEMP:  63; 6HR MAX TEMP:  76;

DES MOINES IA  FAIR      75  48  38 N18       30.10
6HR MIN TEMP:  64; 6HR MAX TEMP:  76;

DAVENPORT IA   FAIR      75  58  55 NW10      30.01S
6HR MIN TEMP:  66; 6HR MAX TEMP:  76;

CHICAGO IL     PTSUNNY   78  60  53 NW17      29.89S
6HR MIN TEMP:  71; 6HR MAX TEMP:  79;

EAU CLAIRE WI  FAIR      70  49  47 NW12G21   29.98F
6HR MIN TEMP:  60; 6HR MAX TEMP:  72;

LA CROSSE WI   FAIR      77  50  38 NW17      29.99R
6HR MIN TEMP:  68; 6HR MAX TEMP:  77;

$$

  *****  SOME NATIONAL WEATHER *****

CITY           SKY/WX    TMP DP  RH WIND       PRES   REMARKS
LA GUARDIA NY  PTSUNNY   88  75  65 S14       29.91F HX  97
6HR MIN TEMP:  77; 6HR MAX TEMP:  89;



USA.gov is the U.S. government's official web portal to all federal, state and local government web resources and services.